CW5458 Weather Reports


Display with metric or nautical units.
time (UTC)temp
F
wind
direction
speed
MPH
gust
MPH
rain 1hr
in
rain 24hr
in
rain mn
in
humidity
%
barometer
mb
20190223192826 43 56 0.0 2.0 0.01 0.45 0.24 99 1017.3
20190223192338 43 56 1.0 2.0 0.01 0.45 0.24 99 1017.3
20190223191832 43 351 0.0 3.0 0.02 0.45 0.24 99 1017.3
20190223191324 42 351 0.0 5.0 0.02 0.45 0.24 98 1017.6
20190223190842 43 351 2.0 5.0 0.02 0.45 0.24 98 1017.6
20190223190333 43 341 0.0 0.0 0.01 0.44 0.23 98 1017.6
20190223185826 43 82 0.0 0.0 0.01 0.44 0.23 98 1017.6
20190223185338 43 151 0.0 0.0 0.01 0.44 0.23 98 1017.6
20190223184833 43 151 0.0 3.0 0.01 0.50 0.23 99 1017.6
20190223184325 42 158 1.0 3.0 0.01 0.50 0.23 99 1017.8
20190223183839 42 95 0.0 0.0 0.01 0.50 0.23 98 1017.8
20190223183332 42 95 0.0 0.0 0.01 0.50 0.23 98 1017.8
20190223182830 42 95 0.0 0.0 0.01 0.50 0.23 98 1018.2
20190223182341 42 95 0.0 0.0 0.01 0.50 0.23 98 1018.2
20190223181838 42 95 0.0 0.0 0.01 0.49 0.22 98 1018.2
20190223181331 42 95 0.0 3.0 0.01 0.49 0.22 98 1018.1
20190223180334 42 61 1.0 4.0 0.01 0.49 0.22 98 1018.1
20190223175827 42 62 0.0 4.0 0.01 0.49 0.22 98 1018.6
20190223175339 42 45 0.0 3.0 0.02 0.49 0.22 98 1018.6
20190223174832 42 61 0.0 0.0 0.02 0.54 0.22 99 1018.6
20190223174326 42 62 0.0 3.0 0.02 0.54 0.22 98 1019.2
20190223173837 42 62 0.0 3.0 0.02 0.54 0.22 98 1019.2
20190223173332 42 5 0.0 0.0 0.02 0.54 0.22 98 1019.2
20190223172824 42 5 0.0 0.0 0.02 0.54 0.22 98 1019.7
20190223172337 42 5 0.0 0.0 0.02 0.54 0.22 98 1019.7
20190223171834 42 360 0.0 0.0 0.01 0.53 0.21 98 1019.7
20190223171328 42 360 0.0 0.0 0.01 0.53 0.21 98 1020.2
20190223170841 42 360 0.0 0.0 0.01 0.53 0.21 98 1020.2
20190223170334 42 360 0.0 0.0 0.01 0.53 0.21 98 1020.2
20190223165827 42 360 0.0 0.0 0.01 0.53 0.21 98 1020.3
20190223165340 42 360 0.0 0.0 0.00 0.52 0.20 98 1020.3
20190223164833 42 360 0.0 0.0 0.01 0.56 0.20 98 1020.3
20190223164323 42 360 0.0 0.0 0.01 0.56 0.20 98 1020.4
20190223163839 42 360 0.0 3.0 0.01 0.56 0.20 98 1020.4
20190223163331 42 360 0.0 3.0 0.01 0.56 0.20 98 1020.4
20190223162824 42 93 0.0 6.0 0.01 0.56 0.20 98 1020.4
20190223162334 42 133 1.0 4.0 0.01 0.56 0.20 98 1020.4
20190223161828 42 137 0.0 2.0 0.01 0.56 0.20 98 1020.4
20190223161340 42 140 0.0 0.0 0.02 0.56 0.20 98 1020.3
20190223160834 42 140 0.0 2.0 0.02 0.56 0.20 98 1020.3
20190223160327 42 140 1.0 3.0 0.03 0.56 0.20 98 1020.3
20190223155842 42 47 1.0 6.0 0.03 0.56 0.20 98 1020.3
20190223155334 42 108 1.0 6.0 0.03 0.56 0.20 98 1020.3
20190223154830 42 142 0.0 0.0 0.02 0.57 0.19 98 1020.3
20190223154342 41 142 0.0 3.0 0.02 0.57 0.19 98 1020.5
20190223153831 41 80 0.0 5.0 0.02 0.57 0.19 98 1020.5
20190223153323 41 145 1.0 7.0 0.02 0.57 0.19 98 1020.5
20190223152838 41 51 2.0 5.0 0.02 0.57 0.19 98 1020.7
20190223152332 41 76 1.0 4.0 0.02 0.57 0.19 98 1020.7
20190223151826 41 46 1.0 7.0 0.02 0.57 0.19 98 1020.7
20190223151341 41 56 1.0 7.0 0.01 0.56 0.18 98 1021.0
20190223150833 41 41 0.0 6.0 0.01 0.56 0.18 98 1021.0
20190223150325 41 66 1.0 6.0 0.00 0.55 0.17 98 1021.0
20190223145821 41 346 2.0 4.0 0.00 0.55 0.17 98 1021.1
20190223145332 41 10 0.0 5.0 0.00 0.55 0.17 98 1021.1
20190223144825 41 360 2.0 6.0 0.00 0.61 0.17 98 1021.1
20190223144335 41 63 0.0 8.0 0.00 0.61 0.17 98 1021.2
20190223143830 41 33 3.0 8.0 0.00 0.61 0.17 98 1021.2
20190223143326 41 51 1.0 5.0 0.00 0.61 0.17 98 1021.2
20190223142840 41 319 0.0 0.0 0.00 0.61 0.17 98 1021.3
20190223142335 41 0.0 0.0 0.00 0.61 0.17 98 1021.3
20190223141833 41 0.0 0.0 0.00 0.61 0.17 98 1021.3
20190223141330 41 0.0 0.0 0.00 0.61 0.17 98 1021.4
20190223140826 41 0.0 0.0 0.01 0.61 0.17 98 1021.4
20190223140341 41 0.0 0.0 0.02 0.61 0.17 98 1021.4
20190223135833 41 0.0 0.0 0.02 0.61 0.17 98 1021.5
20190223135324 41 0.0 0.0 0.04 0.61 0.17 98 1021.5
20190223134839 41 0.0 0.0 0.06 0.63 0.17 98 1021.5
20190223134330 41 0.0 0.0 0.07 0.63 0.17 98 1021.9
20190223133841 41 0.0 0.0 0.09 0.63 0.17 98 1021.9
20190223133336 41 0.0 0.0 0.10 0.63 0.17 98 1021.9
20190223132829 41 0.0 0.0 0.10 0.63 0.17 98 1022.1
20190223132345 41 0.0 0.0 0.10 0.63 0.17 98 1022.1
20190223131840 41 0.0 0.0 0.10 0.63 0.17 98 1022.1
20190223131332 41 0.0 0.0 0.10 0.63 0.17 98 1021.9
20190223130845 41 0.0 0.0 0.09 0.62 0.16 98 1021.9
20190223130336 41 0.0 0.0 0.08 0.61 0.15 98 1021.9
20190223125833 41 0.0 0.0 0.08 0.61 0.15 98 1021.8
20190223125326 41 0.0 0.0 0.06 0.59 0.13 98 1021.8
20190223124841 41 0.0 0.0 0.04 0.58 0.11 98 1021.8
20190223124334 41 0.0 0.0 0.03 0.57 0.10 98 1022.0
20190223123824 41 0.0 0.0 0.02 0.55 0.08 98 1022.0
20190223123338 41 0.0 0.0 0.02 0.55 0.08 98 1022.0
20190223122829 41 0.0 0.0 0.02 0.54 0.07 98 1021.3
20190223122342 41 0.0 0.0 0.03 0.54 0.07 98 1021.3
20190223121837 40 0.0 0.0 0.04 0.54 0.07 98 1021.3
20190223121329 40 0.0 0.0 0.05 0.54 0.07 98 1020.8
20190223120827 40 0.0 0.0 0.05 0.54 0.07 98 1020.8
20190223120340 40 0.0 0.0 0.05 0.54 0.07 98 1020.8
20190223115831 40 0.0 0.0 0.06 0.54 0.07 98 1020.8
20190223115325 40 0.0 0.0 0.06 0.54 0.07 98 1020.8
20190223114839 40 0.0 0.0 0.06 0.57 0.07 98 1020.8
20190223114329 40 0.0 0.0 0.06 0.57 0.07 98 1020.7
20190223113822 40 0.0 0.0 0.05 0.56 0.06 98 1020.7
20190223113334 40 0.0 0.0 0.05 0.56 0.06 98 1020.7
20190223112826 40 0.0 0.0 0.04 0.55 0.05 98 1021.5
20190223112338 40 0.0 0.0 0.03 0.54 0.04 98 1021.5
20190223111835 40 0.0 0.0 0.02 0.53 0.03 98 1021.5
20190223111325 40 0.0 0.0 0.01 0.52 0.02 98 1021.3
20190223110844 40 0.0 0.0 0.01 0.52 0.02 98 1021.3
20190223110335 40 0.0 0.0 0.01 0.52 0.02 98 1021.3
20190223105831 40 0.0 0.0 0.00 0.51 0.01 98 1021.3
20190223105329 40 0.0 0.0 0.00 0.51 0.01 98 1021.3
20190223104827 40 0.0 0.0 0.00 0.52 0.01 98 1021.3
20190223104320 40 0.0 0.0 0.00 0.52 0.01 98 1021.3
20190223103834 40 0.0 0.0 0.00 0.52 0.01 98 1021.3
20190223103344 40 0.0 0.0 0.00 0.52 0.01 98 1021.3
20190223102842 40 0.0 0.0 0.00 0.52 0.01 98 1021.3
20190223102336 40 0.0 0.0 0.00 0.52 0.01 98 1021.3
20190223101830 40 0.0 0.0 0.00 0.52 0.01 98 1021.3
20190223101327 40 0.0 0.0 0.00 0.52 0.01 98 1021.3
20190223100821 40 0.0 0.0 0.00 0.52 0.01 98 1021.3
20190223100336 40 0.0 0.0 0.00 0.52 0.01 98 1021.3
20190223095828 40 0.0 0.0 0.00 0.52 0.01 98 1021.3
20190223095330 40 0.0 0.0 0.00 0.52 0.01 98 1021.3
20190223094827 40 0.0 0.0 0.00 0.56 0.01 98 1021.3
20190223094338 40 0.0 0.0 0.00 0.56 0.01 98 1021.2
20190223093829 40 0.0 0.0 0.00 0.56 0.01 98 1021.2
20190223093326 40 0.0 0.0 0.00 0.56 0.01 98 1021.2
20190223092824 40 0.0 0.0 0.00 0.56 0.01 98 1021.3
20190223092341 40 0.0 0.0 0.00 0.56 0.01 98 1021.3
20190223091839 40 0.0 0.0 0.00 0.56 0.01 98 1021.3
20190223091331 40 0.0 0.0 0.00 0.56 0.01 98 1021.2
20190223090844 40 0.0 0.0 0.00 0.56 0.01 98 1021.2
20190223090336 40 0.0 0.0 0.00 0.56 0.01 98 1021.2
20190223085828 40 0.0 0.0 0.00 0.56 0.01 98 1021.5
20190223085340 40 0.0 0.0 0.01 0.56 0.01 98 1021.5
20190223084835 40 0.0 0.0 0.01 0.77 0.01 98 1021.5
20190223084327 40 0.0 0.0 0.01 0.77 0.01 98 1021.8
20190223083837 40 0.0 0.0 0.01 0.77 0.01 98 1021.8
20190223083329 40 0.0 0.0 0.01 0.77 0.01 97 1021.8
20190223082821 40 0.0 0.0 0.01 0.77 0.01 97 1021.9
20190223082335 40 0.0 0.0 0.01 0.77 0.01 97 1021.9
20190223081849 40 0.0 0.0 0.01 0.77 0.01 97 1021.9
20190223081341 40 0.0 0.0 0.01 0.77 0.01 97 1021.9
20190223080833 40 0.0 0.0 0.01 0.77 0.01 97 1021.9
20190223080325 40 0.0 0.0 0.01 0.77 0.01 97 1021.9
20190223075834 40 0.0 0.0 0.01 0.77 0.01 97 1021.9
20190223075328 40 0.0 0.0 0.00 0.76 0.00 97 1021.9
20190223074842 40 0.0 0.0 0.00 0.82 0.00 97 1021.9
20190223074333 40 0.0 0.0 0.00 0.82 0.00 97 1022.3
20190223073825 40 0.0 0.0 0.00 0.82 0.00 97 1022.3
20190223073338 40 0.0 0.0 0.00 0.82 0.00 97 1022.3
20190223072830 40 0.0 0.0 0.00 0.82 0.00 97 1022.4
20190223072322 40 0.0 0.0 0.00 0.82 0.00 97 1022.4
20190223071838 40 0.0 0.0 0.00 0.82 0.00 97 1022.4
20190223071329 40 0.0 0.0 0.00 0.82 0.00 97 1022.4
20190223070844 40 0.0 0.0 0.00 0.82 0.00 97 1022.4
20190223070329 40 0.0 0.0 0.00 0.82 0.00 97 1022.4
20190223065827 40 0.0 0.0 0.00 0.82 0.00 97 1022.8
20190223065323 40 0.0 0.0 0.00 0.82 0.00 97 1022.8
20190223064820 40 0.0 0.0 0.00 0.86 0.00 97 1022.8
20190223064334 40 0.0 0.0 0.01 0.86 0.00 97 1022.9
20190223063824 40 0.0 0.0 0.01 0.86 0.00 97 1022.9
20190223063339 40 0.0 0.0 0.01 0.86 0.00 97 1022.9
20190223062834 40 0.0 0.0 0.01 0.86 0.00 97 1023.3
20190223062325 40 0.0 0.0 0.01 0.86 0.00 97 1023.3
20190223061823 40 0.0 0.0 0.01 0.86 0.00 97 1023.3
20190223061341 40 0.0 0.0 0.01 0.86 0.00 96 1023.4
20190223060833 40 0.0 0.0 0.01 0.86 0.00 96 1023.4
20190223060328 40 0.0 0.0 0.01 0.86 0.00 96 1023.4
20190223055840 40 0.0 0.0 0.01 0.86 0.00 96 1023.3
20190223055333 40 0.0 0.0 0.01 0.86 0.00 96 1023.3
20190223054825 40 0.0 0.0 0.01 0.89 0.00 96 1023.3
20190223054338 40 0.0 0.0 0.00 0.88 0.85 96 1023.4
20190223053830 40 0.0 0.0 0.00 0.88 0.85 96 1023.4
20190223053324 40 0.0 0.0 0.00 0.88 0.85 96 1023.4
20190223052835 40 0.0 0.0 0.00 0.88 0.85 96 1023.4
20190223052329 40 68 5.0 6.0 0.00 0.88 0.85 96 1023.4
20190223051834 40 68 5.0 6.0 0.00 0.88 0.85 95 1023.4
20190223051335 40 78 2.0 7.0 0.00 0.88 0.85 96 1023.8
20190223050826 40 66 0.0 7.0 0.00 0.88 0.85 95 1023.8
20190223050340 40 31 0.0 5.0 0.00 0.88 0.85 95 1023.8
20190223045830 40 93 0.0 7.0 0.00 0.88 0.85 95 1023.4
20190223045323 40 39 1.0 7.0 0.00 0.88 0.85 95 1023.4
20190223044834 40 144 0.0 13.0 0.00 0.88 0.85 95 1023.4
20190223044324 40 68 2.0 13.0 0.00 0.88 0.85 95 1023.7
20190223043832 40 39 0.0 6.0 0.00 0.88 0.85 95 1023.7
20190223043329 40 35 1.0 9.0 0.00 0.88 0.85 95 1023.7
20190223042822 40 351 3.0 9.0 0.00 0.88 0.85 95 1023.8
20190223042339 40 21 2.0 9.0 0.00 0.88 0.85 95 1023.8
20190223041835 41 48 3.0 6.0 0.00 0.88 0.85 96 1023.8
20190223041327 41 19 0.0 5.0 0.01 0.88 0.85 96 1023.6
20190223040838 41 70 2.0 10.0 0.01 0.88 0.85 96 1023.6
20190223040333 41 53 1.0 12.0 0.01 0.88 0.85 96 1023.6
20190223035828 41 36 5.0 12.0 0.01 0.88 0.85 96 1023.4
20190223035341 41 54 3.0 10.0 0.01 0.88 0.85 96 1023.4
20190223034835 41 101 0.0 4.0 0.01 0.88 0.85 96 1023.4
20190223034328 41 81 1.0 18.0 0.01 0.88 0.85 96 1023.5
20190223033837 41 36 2.0 18.0 0.02 0.88 0.85 96 1023.5
20190223033330 42 30 4.0 9.0 0.02 0.88 0.85 96 1023.5
20190223032822 42 28 2.0 11.0 0.02 0.88 0.85 96 1023.5
20190223032335 42 70 3.0 11.0 0.02 0.88 0.85 96 1023.5
20190223031833 42 70 2.0 10.0 0.02 0.88 0.85 97 1023.5
20190223031325 42 23 1.0 10.0 0.01 0.87 0.84 97 1023.4
20190223030837 42 64 1.0 7.0 0.01 0.87 0.84 97 1023.4
20190223030328 42 83 2.0 12.0 0.01 0.87 0.84 97 1023.4
20190223025840 42 73 5.0 12.0 0.01 0.87 0.84 97 1023.7
20190223025332 42 59 2.0 9.0 0.01 0.87 0.84 97 1023.7
20190223024827 43 54 0.0 5.0 0.01 0.87 0.84 97 1023.7
20190223024340 43 76 3.0 5.0 0.01 0.87 0.84 97 1023.4
20190223023831 42 63 0.0 3.0 0.00 0.86 0.83 97 1023.4
20190223023326 42 66 1.0 5.0 0.00 0.86 0.83 97 1023.4
20190223022838 42 47 0.0 5.0 0.00 0.86 0.83 97 1023.4
20190223022331 42 51 3.0 6.0 0.00 0.86 0.83 97 1023.4
20190223021824 42 62 1.0 6.0 0.00 0.86 0.83 97 1023.4
20190223021337 42 51 2.0 4.0 0.00 0.86 0.83 97 1023.0
20190223020828 42 52 0.0 8.0 0.00 0.86 0.83 97 1023.0
20190223020341 42 66 2.0 8.0 0.01 0.86 0.83 97 1023.0
20190223015833 42 61 0.0 9.0 0.01 0.86 0.83 97 1022.8
20190223015328 42 42 3.0 9.0 0.01 0.86 0.83 97 1022.8
20190223014823 42 83 0.0 7.0 0.01 0.86 0.83 97 1022.8
20190223014337 42 54 0.0 7.0 0.02 0.86 0.83 97 1023.0
20190223013830 42 94 1.0 10.0 0.02 0.86 0.83 97 1023.0
20190223013326 42 63 0.0 10.0 0.02 0.86 0.83 97 1023.0
20190223012835 42 76 2.0 11.0 0.03 0.86 0.83 97 1023.3
20190223012327 42 97 2.0 11.0 0.03 0.86 0.83 97 1023.3
20190223011842 42 45 0.0 10.0 0.03 0.86 0.83 97 1023.3
20190223011334 42 34 3.0 10.0 0.04 0.86 0.83 97 1023.4
20190223010827 42 49 3.0 8.0 0.04 0.86 0.83 97 1023.4
20190223010321 42 78 2.0 8.0 0.03 0.85 0.82 97 1023.4
20190223005836 42 87 2.0 10.0 0.03 0.85 0.82 97 1023.3
20190223005329 42 74 2.0 11.0 0.03 0.85 0.82 97 1023.3
20190223004840 42 85 2.0 11.0 0.03 0.85 0.82 97 1023.3
20190223004331 42 87 2.0 9.0 0.02 0.84 0.81 97 1023.4
20190223003822 42 65 2.0 9.0 0.02 0.84 0.81 97 1023.4
20190223003335 42 39 1.0 9.0 0.02 0.84 0.81 97 1023.4
20190223002828 42 41 0.0 9.0 0.01 0.83 0.80 97 1023.3
20190223002342 42 5 2.0 9.0 0.01 0.83 0.80 97 1023.3
20190223001835 43 79 2.0 7.0 0.01 0.83 0.80 97 1023.3
20190223001325 43 17 1.0 8.0 0.00 0.82 0.79 97 1023.0
20190223000840 43 58 2.0 9.0 0.00 0.82 0.79 97 1023.0
20190223000332 43 29 2.0 7.0 0.00 0.82 0.79 97 1023.0
20190222235827 43 10 1.0 5.0 0.00 0.82 0.79 97 1022.6
20190222235320 43 106 1.0 5.0 0.00 0.82 0.79 97 1022.6
20190222234839 43 20 0.0 7.0 0.00 0.82 0.79 97 1022.6
20190222234331 43 18 3.0 7.0 0.00 0.82 0.79 97 1022.8
20190222233826 44 93 1.0 6.0 0.00 0.82 0.79 97 1022.8
20190222233341 44 334 1.0 5.0 0.00 0.82 0.79 98 1022.8
20190222232834 44 44 0.0 6.0 0.01 0.82 0.79 97 1022.3
20190222232325 44 354 1.0 5.0 0.01 0.82 0.79 98 1022.3
20190222231823 44 66 2.0 6.0 0.01 0.82 0.79 98 1022.3
20190222231337 44 48 0.0 6.0 0.02 0.82 0.79 98 1022.4
20190222230829 44 49 0.0 4.0 0.02 0.82 0.79 98 1022.4
20190222230340 44 36 0.0 3.0 0.02 0.82 0.79 98 1022.4
20190222225834 44 27 1.0 6.0 0.03 0.82 0.79 98 1022.4
20190222225326 44 10 4.0 6.0 0.03 0.82 0.79 98 1022.4
20190222224821 44 34 1.0 5.0 0.03 0.82 0.79 98 1022.4
20190222224336 44 63 0.0 4.0 0.03 0.82 0.79 98 1022.2
20190222223828 44 43 0.0 4.0 0.03 0.82 0.79 98 1022.2
20190222223340 44 43 1.0 5.0 0.04 0.82 0.79 98 1022.2
20190222222834 44 68 0.0 5.0 0.04 0.82 0.79 98 1022.4
20190222222328 44 49 1.0 5.0 0.03 0.81 0.78 98 1022.4
20190222221823 44 83 1.0 6.0 0.03 0.81 0.78 97 1022.4
20190222221333 44 70 2.0 6.0 0.02 0.80 0.77 98 1022.4
20190222220823 44 18 3.0 5.0 0.03 0.80 0.77 98 1022.4
20190222220339 44 31 0.0 2.0 0.04 0.80 0.77 98 1022.4
20190222215832 44 32 1.0 2.0 0.03 0.79 0.76 98 1022.1
20190222215324 44 32 0.0 2.0 0.04 0.79 0.76 98 1022.1
20190222214841 44 62 0.0 2.0 0.04 0.79 0.76 97 1022.1
20190222214334 44 62 0.0 4.0 0.05 0.79 0.76 97 1021.8
20190222213823 44 62 1.0 4.0 0.06 0.79 0.76 97 1021.8
20190222213337 44 49 0.0 7.0 0.05 0.78 0.75 97 1021.8
20190222212831 44 48 2.0 7.0 0.05 0.78 0.75 97 1021.8
20190222212327 44 34 0.0 5.0 0.05 0.78 0.75 97 1021.8
20190222211840 44 34 0.0 7.0 0.06 0.78 0.75 97 1021.8
20190222211333 44 79 0.0 6.0 0.06 0.78 0.75 97 1022.1
20190222210826 44 78 0.0 4.0 0.05 0.77 0.74 97 1022.1
20190222210320 44 68 0.0 4.0 0.04 0.76 0.73 97 1022.1
20190222205835 44 68 0.0 4.0 0.05 0.76 0.73 97 1021.8
20190222205328 44 50 1.0 4.0 0.04 0.75 0.72 97 1021.8
20190222204823 44 35 0.0 2.0 0.05 0.75 0.72 97 1021.8
20190222204335 44 81 0.0 5.0 0.05 0.74 0.71 97 1021.3
20190222203826 44 79 1.0 6.0 0.04 0.73 0.70 97 1021.3
20190222203340 44 37 2.0 10.0 0.04 0.73 0.70 97 1021.3
20190222202833 44 74 2.0 10.0 0.05 0.73 0.70 97 1021.4
20190222202327 44 66 2.0 5.0 0.05 0.73 0.70 97 1021.4
20190222201821 44 66 2.0 5.0 0.04 0.72 0.69 97 1021.4
20190222201336 44 85 1.0 5.0 0.04 0.72 0.69 97 1021.3
20190222200829 44 105 0.0 6.0 0.04 0.72 0.69 97 1021.3
20190222200341 44 63 1.0 9.0 0.04 0.72 0.69 96 1021.3
20190222195834 44 95 0.0 9.0 0.03 0.71 0.68 96 1021.2
20190222195327 44 93 0.0 6.0 0.03 0.71 0.68 96 1021.2
20190222194823 44 96 1.0 7.0 0.02 0.70 0.67 96 1021.2
20190222194336 44 66 3.0 7.0 0.02 0.69 0.66 96 1021.3
20190222193827 44 45 0.0 9.0 0.02 0.69 0.66 96 1021.3
20190222193337 44 70 3.0 9.0 0.02 0.69 0.66 96 1021.3